Lid_Strength_Index
-1 -1 -1 -1 -1 -1 -1 -1 -1 -1 -1 -1 -1 -1 -2 -1 1 4 8 5 3 -2 -1 4 4 5 5 6 4 5 11 12 11 10 9 7 8 6 6 6 5 6 6 4 3
-1 -1 -1 -1 -1 -1 -1 -1 -1 -1 -1 -1 -1 -1 -1 -1 2 5 2 -0 -1 -2 5 7 7 7 8 7 6 8 11 10 8 8 9 7 7 7 8 8 7 7 5 4 3
-1 -1 -1 -1 -1 -1 -1 -1 -1 -1 -1 -1 -2 -2 -1 -1 4 4 -3 -3 -3 -2 4 5 5 5 8 7 8 8 11 8 7 7 6 7 8 6 8 9 8 7 6 4 5
-1 -1 -1 -1 -1 -1 -1 -1 -1 -1 -1 -1 -2 -1 -1 2 9 3 -3 -3 -3 -1 2 5 6 7 9 9 7 9 7 7 7 5 6 8 7 8 8 7 7 6 7 5 5
-1 -1 -1 -1 -1 -1 -1 -1 -1 -1 -1 -2 -1 -2 2 5 7 2 -3 -1 -0 3 4 5 7 7 9 8 8 9 8 6 6 6 7 7 8 8 7 6 6 5 5 6 6
-1 -1 -1 -1 -1 -1 -0 -0 0 -0 -1 -1 -1 -1 3 8 5 2 4 5 4 4 5 5 6 6 8 8 9 8 7 7 7 7 8 8 8 8 7 7 6 6 6 7 6
-1 -1 -0 -0 -0 -0 -0 0 0 -0 -1 -1 -1 2 5 8 5 5 4 5 4 4 5 4 4 6 7 8 6 7 9 9 9 8 8 7 9 9 8 7 8 8 10 9 8
-0 -0 -0 -0 -0 -0 0 -0 -1 -0 -1 -1 -1 4 9 4 5 5 4 5 4 4 4 4 4 5 7 7 7 11 11 13 9 8 7 9 12 8 7 9 9 9 9 8 8
-0 0 0 1 1 1 0 0 0 -1 -1 -1 3 6 9 2 6 5 5 6 5 5 5 4 4 7 8 10 12 12 15 14 12 9 8 10 12 9 8 8 9 10 10 8 8
0 1 1 1 1 1 0 1 -0 0 1 2 3 9 7 7 5 5 6 5 6 6 6 6 8 11 11 12 16 15 16 14 15 11 10 11 11 9 9 9 9 9 9 9 9
1 1 1 1 1 1 2 5 5 6 5 8 7 8 7 6 5 7 5 6 6 8 11 8 12 14 13 12 12 13 14 14 12 9 11 11 11 10 8 9 11 11 11 11 10
1 1 1 1 1 2 3 4 5 5 9 5 6 6 5 5 7 7 6 9 9 11 10 12 14 10 9 9 11 12 13 14 11 9 10 11 11 10 11 11 11 12 12 11 11
1 1 1 1 2 5 4 4 3 4 8 7 5 6 6 5 8 8 7 8 10 11 11 13 10 8 9 10 11 12 13 13 13 11 11 12 13 11 11 11 10 11 11 11 11
1 1 1 2 4 3 4 2 2 3 11 9 7 7 6 6 8 6 6 8 9 11 11 12 9 9 11 11 11 14 10 11 11 13 16 12 17 13 12 12 12 13 14 13 12
1 2 2 2 5 5 3 3 4 5 18 8 8 5 7 8 8 7 6 8 10 10 11 13 11 11 12 11 10 13 10 11 11 14 15 13 16 15 12 15 15 15 13 13 12
2 2 3 4 5 4 3 4 5 12 16 9 7 8 9 8 8 6 7 7 7 10 10 11 9 10 11 9 10 9 11 13 14 15 18 15 14 16 15 16 15 15 13 13 12
3 3 3 4 6 4 4 7 13 15 9 10 10 9 10 11 10 10 11 13 14 16 15 12 11 10 10 12 10 12 16 19 19 18 18 13 15 17 15 14 14 14 14 13 13
4 4 4 5 5 5 6 10 15 11 11 8 9 10 11 11 11 12 12 13 12 14 16 17 16 11 12 12 14 14 15 18 21 20 18 13 17 16 14 13 13 13 13 12 12
4 5 7 9 5 6 9 14 15 13 12 12 11 13 12 10 13 13 13 13 14 14 18 17 15 13 11 11 12 14 17 15 18 17 20 17 16 15 14 14 13 13 12 12 11
6 9 11 8 6 7 11 13 14 12 12 11 14 13 15 14 15 16 14 13 13 13 13 16 20 15 12 11 12 14 13 18 18 22 24 20 19 17 16 15 13 12 11 12 11
7 10 10 9 7 9 13 14 13 11 11 12 13 14 14 16 16 17 14 13 12 13 13 16 18 18 16 16 17 16 17 17 18 19 23 24 21 16 16 13 13 12 11 11 11
9 13 10 10 13 14 15 12 11 12 12 12 13 14 15 15 16 16 14 14 12 13 16 16 19 21 19 15 13 15 17 17 22 21 20 23 21 14 13 12 12 12 11 11 10
14 14 10 10 17 17 15 13 13 13 13 13 13 14 14 16 18 16 14 12 12 14 16 16 20 24 20 17 15 16 15 15 16 18 22 23 19 12 12 12 11 11 12 11 10
12 14 13 13 15 16 16 16 15 12 13 13 14 13 15 16 15 16 15 12 12 13 11 14 18 21 23 20 17 18 16 15 17 24 20 19 17 14 13 13 12 13 12 11 9
12 15 13 17 16 16 16 15 15 15 14 14 15 14 16 18 17 17 15 15 13 11 13 15 19 18 17 16 16 16 16 16 17 17 19 17 16 14 13 14 13 11 9 9 8
12 14 14 15 15 16 15 17 15 15 15 15 16 14 15 17 16 17 16 17 17 15 16 16 20 18 19 16 16 17 16 16 16 15 15 15 16 13 12 11 10 10 8 8 7
11 10 12 14 15 16 16 15 14 14 14 13 14 15 16 14 14 15 15 15 16 17 17 17 19 20 24 17 17 20 16 16 15 14 15 17 14 12 11 11 10 9 7 7 6